Current weather by "City, St" or "zip code"  
 
Advertise Here

Current Conditions: Fort Benning, GA

Fog/Mist


68.0 F

Last Updated on May 30 2020, 2:56 am EDT
Humidity: 95%
Wind Speed: N 0.0 mph
Barometer 30.02 in
Dewpoint: 66.7 F
Visibility: 5.00 mi
Precip: --
Heat Index: NA
Wind Chill: NA
Current conditions at:

Fort Benning, GA (KLSF)

Lat: 32.33333 Lon: 84.83333

Local Radar Image active severe weather and emergency alerts image image weather storm and storm spotter reports image weather observation monitoring service image
Local
Radar
Active
Alerts
Storm Reports Obs
Monitoring

Sign-up For Email & Text Message Weather Alert Notification Services


Advertise Here

Observation History for Fort Benning, GA


Time Wind
(mph)
Vis
(mi)
Weather Precip (in) Temperature (F) Relative
Humidity
Wind
Chill
(F)
Heat
Index
(F)
Pressure
Air Dwpt altimeter
(in)
sea level
(mb)
Rmks
2:56 am EDT N 0.0 5.00 Fog/Mist -- 68.0 66.7 95% NA NA 30.02 1016.9
1:56 am EDT N 0.0 1.13 Fog/Mist -- 68.0 66.9 95% NA NA 30.03 M
12:56 am EDT N 0.0 10.00 Fair Trace 69.0 67.6 94% NA NA 30.03 1017.2
11:56 pm EDT N 0.0 10.00 A Few Clouds -- 71.0 68.4 92% NA NA 30.03 1017.2
10:56 pm EDT S 3.5 10.00 Overcast -- 73.0 69.3 89% NA NA 30.03 1017.2
9:56 pm EDT S 5.8 10.00 Overcast -- 75.0 70.9 87% NA NA 30.02 1016.9
8:56 pm EDT N 0.0 10.00 Overcast -- 76.0 72.1 87% NA NA 30.01 1016.5
7:56 pm EDT S 3.5 10.00 Mostly Cloudy Trace 77.0 72.1 85% NA NA 29.98 1015.5
6:56 pm EDT SE 11.5 10.00 Partly Cloudy -- 78.0 70.0 76% NA NA 29.97 1015.2
5:56 pm EDT SW 4.6 10.00 A Few Clouds -- 87.0 69.3 55% NA 91 29.96 1014.8
4:56 pm EDT N 0.0 10.00 A Few Clouds -- 87.0 68.4 54% NA 91 29.97 1015.2
3:56 pm EDT SW 5.8 10.00 Mostly Cloudy -- 86.0 68.7 57% NA 90 29.97 1015.2
2:56 pm EDT NW 3.5 10.00 Partly Cloudy -- 87.0 68.4 55% NA 91 29.98 1015.5
12:56 pm EDT N 0.0 10.00 Partly Cloudy -- 84.0 67.8 58% NA 87 30.02 1016.9
11:56 am EDT W 4.6 10.00 A Few Clouds -- 83.0 67.8 61% NA 86 30.04 1017.5
10:56 am EDT SW 6.9 10.00 Partly Cloudy -- 82.0 67.3 62% NA 85 30.05 1017.9
9:56 am EDT N 0.0 10.00 Mostly Cloudy -- 78.0 70.9 78% NA NA 30.05 1017.9
8:56 am EDT N 0.0 10.00 Fair -- 75.0 70.0 84% NA NA 30.06 1018.3
7:56 am EDT N 0.0 10.00 A Few Clouds -- 72.0 69.4 93% NA NA 30.05 1017.9
6:56 am EDT N 3.5 10.00 A Few Clouds -- 68.0 66.6 94% NA NA 30.03 1017.2
5:56 am EDT N 0.0 10.00 Overcast -- 69.0 67.6 94% NA NA 30.01 1016.5
4:56 am EDT SE 3.5 10.00 Mostly Cloudy -- 70.0 67.5 91% NA NA 30.01 1016.5
3:56 am EDT N 0.0 10.00 Partly Cloudy -- 70.0 67.6 93% NA NA 30.00 1016.2

Regional Weather Observation


Fort Benning, GA (KLSF)

Fog/Mist
68.0 F

Auburn-Opelika Airport, AL (KAUO)

Fair
71.0 F

Butler Municipal Airport, GA (K6A1)

NULL
73.0 F

Thomaston, Thomaston-Upson County Airport, GA (KOPN)

Fair
70.0 F

Americus Souther Field Airport, GA (KACJ)

Partly Cloudy
73.0 F

Alexander City, Thomas C Russell Field Airport, AL (KALX)

Fair
66.0 F